Location: Borz?cin
(51.1714°N, 19.6030°E)
Time: 18:09:32
(UTC+00:00)

Cosmos 2056 Rocket - Pass Details

Date: 19 May 2025
Orbit: 739 x 796 km, 74.0° (Epoch: 20 June)

Event Time Altitude Azimuth Distance (km) Brightness Sun altitude
Rises 22:40:35 0° 335° (NNW) 3,288 7.9 -18.8°
Reaches altitude 10° 22:43:00 10° 336° (NNW) 2,348 7.0 -18.8°
Maximum altitude 22:48:22 85° 66° (ENE) 783 3.5 -18.8°
Enters shadow 22:50:56 31° 153° (SSE) 1,320 4.2 -18.8°
